Theta_e
347 343 345 347 350 348 347 348 348 346 345 342 342 345 346 346 346 345 345 343 342 340 343 342 341 335 336 330 332 334 333 331 335 333 332 331 330 331 332 334 334 334 329
349 346 347 347 348 347 343 346 347 345 345 345 342 342 345 345 346 346 345 343 343 340 341 343 341 338 335 337 331 329 336 335 333 332 332 331 330 330 334 334 335 334 333
348 349 346 345 348 347 347 349 343 344 346 346 346 340 343 345 345 345 344 344 344 341 341 338 338 342 335 335 338 333 327 334 334 335 331 332 332 331 334 335 334 333 333
337 346 345 348 348 345 346 341 341 339 341 346 345 344 345 346 346 344 344 345 344 344 345 344 341 343 344 335 335 338 335 329 329 334 336 335 334 331 332 333 332 332 332
347 346 347 349 346 346 347 342 340 339 342 342 347 346 346 346 344 345 346 345 345 345 345 345 345 342 342 343 334 336 338 337 336 330 331 335 334 333 331 332 332 331 331
349 347 346 348 346 348 348 342 343 339 344 346 346 346 345 344 347 348 348 349 347 347 347 346 343 346 344 343 341 332 334 337 337 338 333 329 335 334 332 331 332 332 332
349 349 349 346 347 343 343 343 340 343 346 345 344 340 347 348 346 346 348 346 348 346 346 348 343 345 347 346 343 340 331 330 333 338 339 334 331 334 335 334 332 332 332
349 350 347 347 340 342 341 339 341 342 342 342 340 342 341 345 342 342 341 341 341 344 346 347 347 347 349 347 346 343 341 334 331 336 339 339 335 331 331 334 334 333 332
347 347 345 334 336 343 340 340 336 336 339 339 341 340 343 340 341 341 339 339 340 340 345 347 346 347 346 346 346 345 346 346 344 340 338 339 339 340 341 335 332 335 335
349 346 342 334 340 343 330 326 328 328 327 334 336 337 335 338 341 338 337 338 339 340 345 343 346 346 347 347 347 347 346 346 347 346 344 344 341 340 341 339 339 338 335
348 349 346 332 340 339 330 329 334 335 331 333 331 335 335 335 336 337 337 337 337 343 344 340 343 346 347 346 347 346 344 342 345 348 347 347 346 341 340 341 341 339 339
347 344 334 336 333 330 328 338 338 339 336 335 333 329 333 335 334 335 335 336 335 342 344 341 339 339 345 346 345 346 345 344 344 346 345 343 343 345 344 342 342 342 341
348 338 332 338 337 328 334 341 341 340 337 333 330 330 334 334 334 333 333 333 333 336 344 340 334 334 334 341 345 344 344 344 344 343 344 343 345 346 346 344 344 343 343
347 341 332 332 338 337 335 341 343 340 340 332 329 330 330 332 333 332 331 331 331 331 333 334 336 334 332 332 343 342 344 343 343 343 344 344 344 344 343 343 344 344 345
349 342 332 340 344 340 339 338 340 339 336 328 328 327 324 322 331 330 330 330 329 330 331 332 329 328 329 333 338 340 337 338 340 341 341 340 338 335 338 341 342 342 342
343 341 339 345 344 339 340 337 338 336 333 322 322 315 313 311 312 323 321 327 327 327 327 323 324 327 328 333 329 329 332 332 335 337 337 340 336 337 333 333 335 342 343
345 343 345 345 342 340 335 330 326 329 320 321 313 313 313 312 313 315 318 320 321 321 323 320 325 325 326 326 327 328 329 328 333 334 337 338 337 336 332 331 333 334 337
346 343 343 342 341 337 329 317 317 317 316 311 313 311 310 310 311 312 310 311 314 323 323 322 323 323 322 323 322 317 317 324 328 330 329 331 333 332 330 329 330 334 338
344 345 343 341 339 332 322 315 314 311 312 313 311 309 308 308 308 308 308 308 308 311 315 320 320 321 320 315 310 310 310 312 317 325 327 328 329 330 329 328 331 332 335
338 342 340 339 336 325 316 312 310 312 313 313 311 309 307 307 307 307 308 309 310 309 308 308 310 309 309 310 310 310 310 312 313 315 318 320 324 326 328 328 329 329 330
341 339 338 338 332 320 313 310 311 313 312 311 311 312 307 307 308 308 309 311 312 311 310 309 310 312 312 312 313 313 314 314 317 317 318 317 316 317 320 324 326 327 328
336 338 338 338 328 315 310 310 311 310 309 310 312 312 308 308 308 309 310 310 312 314 314 311 311 313 314 315 315 315 314 312 316 317 317 316 315 312 312 315 317 320 322
336 335 339 333 321 312 310 311 310 309 309 308 309 308 309 309 309 309 309 310 311 312 313 314 313 314 314 315 315 315 315 315 314 313 314 314 311 310 311 313 314 315 317
338 339 337 326 314 310 311 311 309 308 308 315 314 317 317 317 314 310 310 314 316 317 317 316 314 316 316 316 316 315 315 315 315 315 313 313 313 312 311 311 312 312 312
340 338 334 322 311 310 309 309 312 317 318 318 319 319 319 318 314 314 315 317 318 318 318 316 317 318 318 317 317 316 316 315 315 314 314 314 314 314 313 313 312 312 312
339 337 331 317 310 309 309 311 318 319 319 319 319 321 320 318 312 316 317 318 318 318 319 318 318 318 319 318 317 316 315 316 315 315 314 315 314 314 314 313 313 313 312
Wind_Speed
5 5 4 5 3 9 9 9 10 10 11 10 9 14 14 14 14 12 16 17 17 19 16 15 14 16 17 16 17 17 17 18 18 18 18 15 14 12 13 17 19 19 17
5 10 7 4 3 5 9 12 11 15 12 12 13 12 13 19 16 15 18 21 23 21 21 20 20 20 21 20 18 19 19 18 19 19 19 19 17 13 13 18 23 20 17
11 6 7 6 6 3 6 6 8 9 8 8 11 11 8 13 17 22 21 22 27 27 26 29 26 25 24 23 22 20 21 20 20 20 19 19 17 15 11 14 22 20 18
5 6 4 6 1 3 5 7 9 8 6 5 3 5 7 8 13 16 18 21 18 18 20 26 28 27 27 27 26 24 22 20 21 21 20 20 19 17 14 16 19 19 19
5 3 1 6 8 4 5 10 5 6 7 5 8 3 5 9 7 10 12 12 18 17 18 24 26 27 25 27 30 27 25 24 23 22 22 22 20 20 19 18 19 20 20
1 2 1 3 3 7 4 10 9 7 9 10 7 9 10 10 12 15 12 15 17 20 20 12 32 25 27 26 27 30 28 28 26 26 24 24 23 22 22 22 20 21 21
3 3 3 2 5 4 4 5 5 4 7 12 8 9 7 11 2 9 9 6 11 17 16 12 16 22 24 25 26 29 31 30 29 29 28 26 26 25 25 24 24 23 23
6 6 4 2 3 3 3 3 4 5 6 8 8 8 7 5 13 15 17 18 18 20 17 9 9 19 19 20 23 24 26 29 30 29 30 30 27 25 25 27 27 27 26
6 4 1 4 4 1 5 5 6 3 2 5 12 10 5 7 14 12 16 19 21 20 18 10 7 10 16 19 19 22 22 21 23 31 32 30 31 28 29 29 29 29 29
6 3 2 2 4 1 2 5 7 6 4 2 1 7 9 13 9 11 13 16 16 17 15 18 11 5 4 12 22 23 21 23 26 23 25 29 31 32 30 32 33 32 31
7 3 2 5 3 2 5 7 7 11 10 8 6 2 4 8 13 13 15 16 12 14 14 18 19 12 5 8 15 24 28 13 25 24 23 24 31 34 34 34 33 36 36
9 4 5 6 3 4 5 9 9 9 13 10 10 9 8 14 14 12 11 10 12 16 11 15 19 20 17 5 3 6 7 24 20 17 23 21 32 33 35 35 38 39 39
11 4 4 4 4 4 7 5 4 5 8 12 10 9 4 7 8 8 11 12 12 14 9 12 20 20 18 14 7 3 3 6 10 13 15 15 18 24 27 29 34 38 42
12 8 2 3 4 8 4 2 2 5 6 8 6 8 1 5 3 4 10 13 12 8 9 13 11 14 17 13 7 8 7 3 3 6 9 11 15 19 22 25 28 31 35
17 8 5 6 3 2 1 2 2 4 8 5 5 6 3 3 2 2 2 6 10 8 7 10 12 14 10 7 5 6 7 6 5 5 5 4 6 8 10 16 23 27 32
16 10 10 8 6 3 1 4 6 6 8 3 5 7 8 7 5 3 2 3 5 8 7 14 12 14 10 5 8 10 7 7 4 5 7 5 10 9 11 13 14 17 22
15 12 12 11 7 4 3 5 5 5 5 4 6 7 7 7 5 3 2 5 6 7 7 10 10 13 10 8 9 10 10 10 4 5 4 2 6 7 10 12 13 13 15
16 12 12 12 7 4 2 2 3 2 3 5 7 8 10 11 10 10 10 10 8 5 7 10 11 11 12 14 16 15 11 9 10 7 3 4 6 8 9 12 13 9 12
15 11 11 10 4 3 4 3 1 2 4 6 9 10 12 11 11 11 11 12 11 9 8 5 5 8 12 16 14 12 11 8 5 11 11 10 7 6 6 8 8 9 13
19 14 9 6 4 1 2 2 3 3 5 7 9 11 11 11 12 12 13 13 14 13 14 10 10 13 16 17 19 18 15 14 10 5 3 6 10 11 11 10 6 7 11
13 11 8 9 2 2 1 2 3 6 7 7 9 12 14 14 14 14 14 14 14 15 19 18 17 17 19 23 27 25 21 18 12 16 15 12 13 12 10 12 14 13 13
13 15 14 7 2 1 2 1 5 6 6 5 7 9 12 13 15 15 14 14 14 15 18 22 21 16 15 19 21 26 26 26 24 21 21 20 19 21 17 13 18 21 21
23 15 10 8 6 4 5 4 6 6 6 7 5 9 11 14 15 15 15 16 18 18 19 20 22 15 16 15 17 18 19 22 21 25 21 22 25 24 22 18 12 12 17
13 13 11 8 6 7 8 5 4 6 7 11 10 10 9 13 18 17 15 15 16 19 21 18 11 11 14 17 18 18 17 18 22 26 22 24 25 26 25 15 22 22 19
14 11 10 8 8 10 9 6 5 8 9 6 7 6 7 13 18 16 15 14 14 16 18 15 11 12 12 16 21 16 15 15 24 28 22 23 25 28 29 25 29 29 26
11 11 8 7 9 9 8 6 6 2 2 2 5 4 4 13 14 13 13 14 15 15 16 12 12 13 13 19 20 18 17 18 23 27 24 26 24 25 29 24 30 29 30
Wind_Direction
268 330 283 238 277 315 312 302 302 312 305 269 259 247 250 239 238 233 245 253 250 256 255 253 245 243 231 221 219 217 213 211 211 213 217 220 225 236 244 230 216 213 208
306 315 316 350 333 340 324 293 309 322 318 277 261 251 247 246 252 244 244 257 253 253 262 256 256 237 234 230 225 223 221 220 217 219 221 225 233 242 252 232 210 211 212
303 288 323 336 341 274 302 312 323 338 333 285 251 244 258 240 246 256 257 262 260 262 267 263 261 243 233 231 232 228 223 222 223 223 225 228 229 234 234 198 199 203 209
300 252 308 303 305 333 37 338 322 334 358 6 292 268 293 293 269 266 269 265 271 267 271 266 257 249 238 232 227 227 228 226 224 225 224 225 228 227 221 204 204 209 210
315 296 241 334 322 5 2 341 12 7 3 11 14 6 325 315 327 321 314 278 283 271 285 271 262 249 246 238 230 225 229 233 234 230 228 224 224 226 223 217 214 215 214
327 71 302 44 40 11 341 338 339 356 1 333 340 356 347 324 320 316 300 288 294 256 312 309 242 243 241 241 237 230 228 233 237 236 235 231 224 223 225 224 219 219 218
267 252 289 36 53 320 334 341 348 22 48 37 1 5 60 65 328 352 40 7 340 331 318 308 244 244 235 237 238 236 231 230 236 238 236 235 232 228 226 228 227 224 221
255 268 280 310 29 24 349 348 356 25 70 36 16 19 46 101 28 21 18 24 14 360 347 317 296 243 241 229 235 239 238 235 235 238 238 235 234 233 234 234 232 230 228
228 199 235 26 159 55 315 324 338 312 53 57 74 50 23 4 353 6 14 8 7 4 7 360 337 303 244 223 233 234 240 244 240 240 241 241 239 240 239 239 236 236 233
153 156 90 61 169 270 359 48 46 31 9 58 130 92 64 43 356 1 358 7 6 359 11 22 13 351 249 245 241 239 239 241 235 236 238 244 241 241 241 235 239 241 240
159 171 306 164 196 39 49 52 56 44 31 37 39 104 106 52 42 18 10 1 24 19 12 34 40 26 335 285 251 236 230 247 235 241 240 236 241 238 243 238 239 237 241
173 199 158 142 121 47 59 68 48 27 13 20 23 45 50 38 30 22 360 345 6 31 34 31 39 34 28 2 339 258 214 237 238 265 250 252 244 242 242 239 237 241 242
179 169 155 128 62 80 72 85 49 13 4 356 2 30 67 57 22 27 12 359 353 43 53 43 33 29 24 22 28 342 287 252 255 258 254 261 252 247 247 247 246 247 244
186 186 223 167 95 76 87 63 311 343 347 358 350 9 238 359 341 13 20 10 351 12 38 55 23 30 20 25 25 40 47 49 351 297 279 283 272 260 256 256 260 262 259
194 204 197 148 136 52 75 252 314 319 344 337 319 352 13 18 258 290 338 11 3 352 350 341 350 2 23 31 41 350 342 340 348 336 320 327 350 342 314 292 280 272 268
190 206 178 170 197 218 245 295 299 316 326 344 330 360 13 19 4 333 298 284 318 331 340 345 28 10 4 11 338 321 312 309 251 261 295 275 332 333 341 331 306 292 287
196 206 176 196 216 241 306 289 275 313 346 357 356 22 31 35 43 33 9 350 7 8 15 32 40 13 343 338 322 314 309 308 275 285 199 141 296 299 310 316 318 317 304
201 198 195 206 223 267 300 335 270 328 7 27 42 47 60 57 55 49 42 38 43 46 16 30 34 6 333 331 326 326 319 287 264 262 263 215 249 285 304 298 288 311 326
190 189 202 206 226 273 337 18 32 20 37 61 68 60 54 49 50 50 48 42 40 29 11 357 352 333 336 337 347 352 346 349 294 259 266 268 273 285 310 340 291 265 274
181 181 218 232 218 278 337 23 35 60 73 82 71 54 50 45 45 46 43 40 37 32 29 20 5 5 11 15 13 9 15 22 33 35 330 313 283 280 272 274 270 288 290
139 186 186 234 218 5 325 48 85 104 88 79 64 50 47 43 38 34 35 34 29 26 23 22 17 17 21 22 21 15 14 26 39 23 12 354 345 323 295 268 266 277 286
180 196 209 220 211 235 223 169 108 98 90 80 69 56 46 38 37 32 25 19 18 13 11 11 8 7 17 17 17 12 10 12 13 10 352 350 348 348 338 312 292 292 290
181 196 206 202 215 210 196 146 118 102 94 81 60 49 46 39 31 25 23 22 20 12 9 359 352 356 1 1 352 352 356 2 2 359 339 341 348 353 360 358 348 312 309
176 188 192 195 205 187 162 144 103 90 85 69 69 48 38 31 22 15 17 25 32 26 14 359 355 17 353 348 333 325 327 334 343 352 346 340 355 359 2 10 11 10 1
188 193 189 194 185 164 153 158 153 133 73 66 36 19 14 17 13 12 16 20 22 18 25 28 19 3 352 352 337 328 324 311 333 340 347 339 347 340 345 356 1 358 357
195 194 194 188 164 160 170 175 169 202 80 65 75 27 5 1 2 2 5 354 351 351 359 10 3 346 332 338 343 324 316 314 327 327 337 323 323 328 320 338 344 350 347